| time (UTC) | temp C | wind direction | speed KPH | gust KPH | rain 1hr cm | rain 24hr cm | rain mn cm | humidity % | barometer mb |
| 20260505003016 | 15 | 127 | 12.9 | 24.1 | 0.00 | 0.00 | 0.00 | 72 | 1026.4 |
| 20260505001516 | 13 | 67 | 12.9 | 20.9 | 0.00 | 0.00 | 0.00 | 75 | 1026.1 |
| 20260505000017 | 13 | 101 | 11.3 | 19.3 | 0.00 | 0.00 | 0.00 | 78 | 1026.0 |
| 20260504231517 | 12 | 65 | 8.0 | 17.7 | 0.00 | 0.00 | 0.00 | 80 | 1025.3 |
| 20260504230016 | 11 | 96 | 11.3 | 16.1 | 0.00 | 0.00 | 0.00 | 81 | 1025.2 |
| 20260504224520 | 11 | 113 | 11.3 | 17.7 | 0.00 | 0.00 | 0.00 | 82 | 1025.1 |
| 20260504220021 | 11 | 113 | 4.8 | 12.9 | 0.00 | 0.00 | 0.00 | 83 | 1024.9 |
| 20260504214524 | 11 | 99 | 6.4 | 14.5 | 0.00 | 0.00 | 0.00 | 83 | 1024.7 |
| 20260504213036 | 11 | 125 | 6.4 | 12.9 | 0.00 | 0.00 | 0.00 | 84 | 1024.7 |
| 20260504211508 | 11 | 129 | 6.4 | 12.9 | 0.00 | 0.00 | 0.00 | 83 | 1024.7 |
| 20260504210017 | 11 | 136 | 8.0 | 11.3 | 0.00 | 0.00 | 0.00 | 84 | 1024.8 |
| 20260504204508 | 11 | 117 | 4.8 | 9.7 | 0.00 | 0.00 | 0.00 | 83 | 1024.9 |
| 20260504200009 | 11 | 134 | 4.8 | 6.4 | 0.00 | 0.00 | 0.00 | 83 | 1024.9 |
| 20260504194518 | 11 | 134 | 3.2 | 6.4 | 0.00 | 0.00 | 0.00 | 82 | 1024.8 |
| 20260504193023 | 11 | 140 | 3.2 | 11.3 | 0.00 | 0.00 | 0.00 | 81 | 1024.8 |
| 20260504191511 | 12 | 146 | 4.8 | 6.4 | 0.00 | 0.00 | 0.00 | 81 | 1024.9 |
| 20260504183016 | 12 | 116 | 6.4 | 12.9 | 0.00 | 0.00 | 0.00 | 78 | 1025.1 |
| 20260504181522 | 12 | 99 | 6.4 | 12.9 | 0.00 | 0.00 | 0.00 | 78 | 1025.1 |
| 20260504180008 | 12 | 130 | 4.8 | 8.0 | 0.00 | 0.00 | 0.00 | 77 | 1025.1 |
| 20260504174519 | 13 | 154 | 6.4 | 9.7 | 0.00 | 0.00 | 0.00 | 76 | 1025.2 |
| 20260504081509 | 18 | 224 | 14.5 | 22.5 | 0.00 | 0.00 | 0.00 | 68 | 1025.0 |
| 20260504044533 | 20 | 92 | 4.8 | 9.7 | 0.00 | 0.00 | 0.00 | 54 | 1026.1 |
| 20260504043028 | 20 | 137 | 6.4 | 12.9 | 0.00 | 0.00 | 0.00 | 55 | 1026.2 |
| 20260504041528 | 20 | 17 | 6.4 | 12.9 | 0.00 | 0.00 | 0.00 | 57 | 1026.5 |
| 20260504040022 | 19 | 101 | 6.4 | 14.5 | 0.00 | 0.00 | 0.00 | 57 | 1026.7 |
| 20260504034528 | 20 | 92 | 8.0 | 14.5 | 0.00 | 0.00 | 0.00 | 56 | 1026.9 |
| 20260504033019 | 18 | 104 | 9.7 | 17.7 | 0.00 | 0.00 | 0.00 | 59 | 1027.0 |
| 20260504031529 | 18 | 86 | 11.3 | 19.3 | 0.00 | 0.00 | 0.00 | 60 | 1027.1 |
| 20260504030028 | 18 | 120 | 9.7 | 17.7 | 0.00 | 0.00 | 0.00 | 60 | 1027.3 |
| 20260504024523 | 18 | 53 | 11.3 | 19.3 | 0.00 | 0.00 | 0.00 | 62 | 1027.4 |
| 20260504023007 | 17 | 118 | 12.9 | 20.9 | 0.00 | 0.00 | 0.00 | 65 | 1027.6 |
| 20260504021517 | 17 | 88 | 9.7 | 17.7 | 0.00 | 0.00 | 0.00 | 66 | 1027.4 |
| 20260504020027 | 17 | 104 | 8.0 | 19.3 | 0.00 | 0.00 | 0.00 | 68 | 1027.6 |
| 20260504014513 | 16 | 113 | 11.3 | 17.7 | 0.00 | 0.00 | 0.00 | 68 | 1027.5 |
| 20260504013030 | 16 | 121 | 16.1 | 19.3 | 0.00 | 0.00 | 0.00 | 69 | 1027.5 |
| 20260504011506 | 16 | 77 | 8.0 | 20.9 | 0.00 | 0.00 | 0.00 | 71 | 1027.5 |
| 20260504010015 | 15 | 89 | 9.7 | 17.7 | 0.00 | 0.00 | 0.00 | 72 | 1027.4 |
| 20260504004524 | 15 | 102 | 11.3 | 20.9 | 0.00 | 0.00 | 0.00 | 74 | 1027.4 |